Time,TemperatureF,DewpointF,PressureIn,WindDirection,WindDirectionDegrees,WindSpeedMPH,WindSpeedGustMPH,Humidity,HourlyPrecipIn,Conditions,Clouds,dailyrainin,SoftwareType,DateUTC
2013-02-12 00:00:00,34.0,33.5,29.50,WSW,257,4.0,4.0,98,0.00,,,0.00,Wunderground v.1.12,2013-02-12 05:00:00,
2013-02-12 00:01:00,34.0,33.5,29.50,West,264,4.0,4.0,98,0.00,,,0.00,Wunderground v.1.12,2013-02-12 05:01:00,
2013-02-12 00:03:00,34.0,33.5,29.50,WSW,247,4.0,4.0,98,0.00,,,0.00,Wunderground v.1.12,2013-02-12 05:03:00,
2013-02-12 00:07:00,34.1,33.6,29.49,WSW,248,4.0,10.0,98,0.01,,,0.01,Wunderground v.1.12,2013-02-12 05:07:00,
2013-02-12 00:08:00,34.0,33.5,29.50,WSW,251,3.0,4.0,98,0.00,,,0.00,Wunderground v.1.12,2013-02-12 05:08:00,
2013-02-12 00:13:00,34.0,33.5,29.50,WSW,250,3.0,7.0,98,0.00,,,0.00,Wunderground v.1.12,2013-02-12 05:13:00,
2013-02-12 00:18:00,34.1,33.6,29.50,WSW,249,3.0,4.0,98,0.00,,,0.00,Wunderground v.1.12,2013-02-12 05:18:00,
2013-02-12 00:24:00,34.1,33.6,29.50,West,269,4.0,7.0,98,0.00,,,0.00,Wunderground v.1.12,2013-02-12 05:24:00,
2013-02-12 00:29:00,34.1,33.6,29.49,West,265,5.0,7.0,98,0.00,,,0.00,Wunderground v.1.12,2013-02-12 05:29:00,
2013-02-12 00:34:00,34.0,33.5,29.49,WSW,241,4.0,5.0,98,0.00,,,0.01,Wunderground v.1.12,2013-02-12 05:34:00,
2013-02-12 00:38:00,34.1,33.6,29.49,WSW,248,4.0,10.0,98,0.01,,,0.01,Wunderground v.1.12,2013-02-12 05:38:00,
2013-02-12 00:40:00,34.1,33.6,29.49,WSW,242,3.0,3.0,98,0.00,,,0.01,Wunderground v.1.12,2013-02-12 05:40:00,
2013-02-12 00:45:00,34.0,33.5,29.49,WSW,241,3.0,3.0,98,0.00,,,0.01,Wunderground v.1.12,2013-02-12 05:45:00,
2013-02-12 00:51:00,34.0,33.5,29.49,WSW,241,2.0,3.0,98,0.00,,,0.01,Wunderground v.1.12,2013-02-12 05:51:00,
2013-02-12 00:56:00,33.8,33.3,29.49,WSW,241,1.0,2.0,98,0.00,,,0.01,Wunderground v.1.12,2013-02-12 05:56:00,
2013-02-12 01:02:00,33.7,33.2,29.48,WSW,241,1.0,1.0,98,0.00,,,0.01,Wunderground v.1.12,2013-02-12 06:02:00,
2013-02-12 01:06:00,33.8,33.3,29.48,WSW,248,2.0,8.0,98,0.00,,,0.01,Wunderground v.1.12,2013-02-12 06:06:00,
2013-02-12 01:08:00,33.7,33.2,29.48,WSW,241,1.0,1.0,98,0.00,,,0.01,Wunderground v.1.12,2013-02-12 06:08:00,
2013-02-12 01:13:00,33.7,33.2,29.48,WSW,241,1.0,2.0,98,0.00,,,0.01,Wunderground v.1.12,2013-02-12 06:13:00,
2013-02-12 01:19:00,33.8,33.3,29.46,WSW,241,1.0,3.0,98,0.00,,,0.01,Wunderground v.1.12,2013-02-12 06:19:00,
2013-02-12 01:26:00,33.8,33.3,29.46,WSW,242,1.0,2.0,98,0.00,,,0.01,Wunderground v.1.12,2013-02-12 06:26:00,
2013-02-12 01:32:00,33.8,33.3,29.46,WSW,242,1.0,1.0,98,0.00,,,0.01,Wunderground v.1.12,2013-02-12 06:32:00,
2013-02-12 01:36:00,33.8,33.3,29.46,WSW,248,1.0,6.0,98,0.00,,,0.01,Wunderground v.1.12,2013-02-12 06:36:00,
2013-02-12 01:38:00,33.8,33.3,29.46,WSW,242,0.0,1.0,98,0.00,,,0.01,Wunderground v.1.12,2013-02-12 06:38:00,
2013-02-12 01:43:00,34.0,33.5,29.46,WSW,242,1.0,5.0,98,0.00,,,0.01,Wunderground v.1.12,2013-02-12 06:43:00,
2013-02-12 01:48:00,34.0,33.5,29.48,WSW,242,2.0,3.0,98,0.00,,,0.01,Wunderground v.1.12,2013-02-12 06:48:00,
2013-02-12 01:54:00,34.0,33.5,29.48,WSW,248,3.0,3.0,98,0.00,,,0.01,Wunderground v.1.12,2013-02-12 06:54:00,
2013-02-12 01:59:00,34.1,33.6,29.48,WSW,250,3.0,4.0,98,0.00,,,0.01,Wunderground v.1.12,2013-02-12 06:59:00,
2013-02-12 02:04:00,34.1,33.6,29.48,West,259,4.0,6.0,98,0.00,,,0.01,Wunderground v.1.12,2013-02-12 07:04:00,
2013-02-12 02:07:00,34.1,33.6,29.48,WSW,248,2.0,7.0,98,0.00,,,0.01,Wunderground v.1.12,2013-02-12 07:07:00,
2013-02-12 02:10:00,34.4,33.9,29.48,WSW,244,5.0,5.0,98,0.00,,,0.01,Wunderground v.1.12,2013-02-12 07:10:00,
2013-02-12 02:15:00,34.4,33.9,29.48,West,261,6.0,6.0,98,0.00,,,0.01,Wunderground v.1.12,2013-02-12 07:15:00,
2013-02-12 02:21:00,34.9,34.4,29.48,West,266,6.0,8.0,98,0.00,,,0.01,Wunderground v.1.12,2013-02-12 07:21:00,
2013-02-12 02:26:00,34.9,34.4,29.48,WSW,257,7.0,7.0,98,0.00,,,0.01,Wunderground v.1.12,2013-02-12 07:26:00,
2013-02-12 02:32:00,34.9,34.4,29.47,West,259,8.0,8.0,98,0.00,,,0.01,Wunderground v.1.12,2013-02-12 07:32:00,
2013-02-12 02:38:00,34.9,34.1,29.47,West,261,7.0,10.0,97,0.00,,,0.01,Wunderground v.1.12,2013-02-12 07:38:00,
2013-02-12 02:43:00,34.9,33.9,29.47,West,276,7.0,10.0,96,0.00,,,0.01,Wunderground v.1.12,2013-02-12 07:43:00,
2013-02-12 02:48:00,34.9,33.9,29.48,West,280,7.0,9.0,96,0.00,,,0.01,Wunderground v.1.12,2013-02-12 07:48:00,
2013-02-12 02:54:00,35.0,33.7,29.48,WSW,257,8.0,9.0,95,0.00,,,0.01,Wunderground v.1.12,2013-02-12 07:54:00,
2013-02-12 02:59:00,35.0,33.4,29.47,West,263,8.0,8.0,94,0.00,,,0.01,Wunderground v.1.12,2013-02-12 07:59:00,
2013-02-12 03:04:00,35.2,33.1,29.47,SW,232,8.0,19.0,92,0.00,,,0.01,Wunderground v.1.12,2013-02-12 08:04:00,
2013-02-12 03:06:00,35.0,33.4,29.47,West,270,7.0,15.0,94,0.00,,,0.01,Wunderground v.1.12,2013-02-12 08:06:00,
2013-02-12 03:09:00,35.6,33.0,29.47,West,279,10.0,10.0,90,0.00,,,0.01,Wunderground v.1.12,2013-02-12 08:09:00,
2013-02-12 03:15:00,35.5,32.6,29.47,WNW,290,10.0,17.0,89,0.00,,,0.01,Wunderground v.1.12,2013-02-12 08:15:00,
2013-02-12 03:20:00,35.6,32.4,29.47,WNW,287,9.0,9.0,88,0.00,,,0.01,Wunderground v.1.12,2013-02-12 08:20:00,
2013-02-12 03:26:00,35.8,32.6,29.47,West,263,9.0,15.0,88,0.00,,,0.01,Wunderground v.1.12,2013-02-12 08:26:00,
2013-02-12 03:32:00,35.8,32.3,29.48,West,267,9.0,14.0,87,0.00,,,0.01,Wunderground v.1.12,2013-02-12 08:32:00,
2013-02-12 03:37:00,35.9,32.1,29.48,WSW,250,9.0,13.0,86,0.00,,,0.01,Wunderground v.1.12,2013-02-12 08:37:00,
2013-02-12 03:43:00,35.9,32.1,29.48,West,260,10.0,11.0,86,0.00,,,0.01,Wunderground v.1.12,2013-02-12 08:43:00,
2013-02-12 03:49:00,35.8,32.0,29.48,WSW,256,10.0,10.0,86,0.00,,,0.01,Wunderground v.1.12,2013-02-12 08:49:00,
2013-02-12 03:54:00,35.8,32.0,29.48,West,270,10.0,15.0,86,0.00,,,0.01,Wunderground v.1.12,2013-02-12 08:54:00,
2013-02-12 04:00:00,35.6,31.5,29.48,West,273,9.0,9.0,85,0.00,,,0.01,Wunderground v.1.12,2013-02-12 09:00:00,
2013-02-12 04:04:00,35.5,31.7,29.48,West,261,9.0,9.0,86,0.00,,,0.01,Wunderground v.1.12,2013-02-12 09:04:00,
2013-02-12 04:06:00,35.6,31.5,29.48,West,270,10.0,20.0,85,0.00,,,0.01,Wunderground v.1.12,2013-02-12 09:06:00,
2013-02-12 04:11:00,35.5,31.4,29.48,West,269,8.0,8.0,85,0.00,,,0.01,Wunderground v.1.12,2013-02-12 09:11:00,
2013-02-12 04:17:00,35.5,31.4,29.48,West,281,9.0,9.0,85,0.00,,,0.01,Wunderground v.1.12,2013-02-12 09:17:00,
2013-02-12 04:23:00,35.3,31.5,29.48,West,261,9.0,10.0,86,0.00,,,0.01,Wunderground v.1.12,2013-02-12 09:23:00,
2013-02-12 04:28:00,35.2,31.4,29.48,West,268,9.0,14.0,86,0.00,,,0.01,Wunderground v.1.12,2013-02-12 09:28:00,
2013-02-12 04:34:00,35.2,31.1,29.49,WSW,248,9.0,13.0,85,0.00,,,0.01,Wunderground v.1.12,2013-02-12 09:34:00,
2013-02-12 04:36:00,35.3,31.5,29.49,West,270,9.0,17.0,86,0.00,,,0.02,Wunderground v.1.12,2013-02-12 09:36:00,
2013-02-12 04:39:00,35.2,31.4,29.49,WNW,283,9.0,10.0,86,0.00,,,0.01,Wunderground v.1.12,2013-02-12 09:39:00,
2013-02-12 04:44:00,35.0,31.2,29.49,West,274,7.0,7.0,86,0.00,,,0.01,Wunderground v.1.12,2013-02-12 09:44:00,
2013-02-12 04:50:00,34.9,31.1,29.49,West,278,6.0,6.0,86,0.00,,,0.01,Wunderground v.1.12,2013-02-12 09:50:00,
2013-02-12 04:56:00,34.9,31.1,29.49,West,269,6.0,9.0,86,0.00,,,0.02,Wunderground v.1.12,2013-02-12 09:56:00,
2013-02-12 05:02:00,34.9,31.1,29.49,West,272,7.0,7.0,86,0.00,,,0.02,Wunderground v.1.12,2013-02-12 10:02:00,
2013-02-12 05:07:00,34.9,31.1,29.49,West,279,7.0,9.0,86,0.00,,,0.02,Wunderground v.1.12,2013-02-12 10:07:00,
2013-02-12 05:13:00,34.9,30.8,29.49,WNW,287,7.0,10.0,85,0.00,,,0.02,Wunderground v.1.12,2013-02-12 10:13:00,
2013-02-12 05:19:00,34.9,30.8,29.50,West,269,9.0,9.0,85,0.00,,,0.02,Wunderground v.1.12,2013-02-12 10:19:00,
2013-02-12 05:24:00,34.9,30.6,29.50,West,277,9.0,13.0,84,0.00,,,0.02,Wunderground v.1.12,2013-02-12 10:24:00,
2013-02-12 05:30:00,35.3,30.7,29.51,West,266,10.0,10.0,83,0.00,,,0.02,Wunderground v.1.12,2013-02-12 10:30:00,
2013-02-12 05:36:00,35.2,30.3,29.51,WNW,294,9.0,9.0,82,0.00,,,0.02,Wunderground v.1.12,2013-02-12 10:36:00,
2013-02-12 05:37:00,35.3,30.7,29.51,West,270,8.0,21.0,83,0.01,,,0.02,Wunderground v.1.12,2013-02-12 10:37:00,
2013-02-12 05:41:00,35.2,30.3,29.51,West,278,8.0,9.0,82,0.00,,,0.02,Wunderground v.1.12,2013-02-12 10:41:00,
2013-02-12 05:46:00,35.0,30.1,29.51,WNW,301,8.0,11.0,82,0.00,,,0.02,Wunderground v.1.12,2013-02-12 10:46:00,
2013-02-12 05:52:00,35.0,30.1,29.51,West,281,6.0,11.0,82,0.00,,,0.02,Wunderground v.1.12,2013-02-12 10:52:00,
2013-02-12 05:57:00,35.0,30.1,29.51,West,269,6.0,6.0,82,0.00,,,0.02,Wunderground v.1.12,2013-02-12 10:57:00,
2013-02-12 06:03:00,34.9,30.0,29.52,West,273,5.0,6.0,82,0.00,,,0.02,Wunderground v.1.12,2013-02-12 11:03:00,
2013-02-12 06:07:00,35.0,30.1,29.51,West,270,7.0,17.0,82,0.00,,,0.02,Wunderground v.1.12,2013-02-12 11:07:00,
2013-02-12 06:08:00,34.7,29.8,29.52,West,274,4.0,7.0,82,0.00,,,0.02,Wunderground v.1.12,2013-02-12 11:08:00,
2013-02-12 06:13:00,34.7,29.8,29.52,West,273,4.0,5.0,82,0.00,,,0.02,Wunderground v.1.12,2013-02-12 11:13:00,
2013-02-12 06:19:00,34.4,29.5,29.52,West,273,3.0,4.0,82,0.00,,,0.02,Wunderground v.1.12,2013-02-12 11:19:00,
2013-02-12 06:25:00,34.3,29.7,29.52,West,266,4.0,4.0,83,0.00,,,0.02,Wunderground v.1.12,2013-02-12 11:25:00,
2013-02-12 06:31:00,34.1,29.5,29.52,West,263,4.0,4.0,83,0.00,,,0.02,Wunderground v.1.12,2013-02-12 11:31:00,
2013-02-12 06:36:00,34.1,29.5,29.52,West,273,5.0,5.0,83,0.00,,,0.02,Wunderground v.1.12,2013-02-12 11:36:00,
2013-02-12 06:41:00,34.3,29.4,29.52,West,271,5.0,5.0,82,0.00,,,0.02,Wunderground v.1.12,2013-02-12 11:41:00,
2013-02-12 06:47:00,34.0,29.4,29.52,West,273,5.0,5.0,83,0.00,,,0.02,Wunderground v.1.12,2013-02-12 11:47:00,
2013-02-12 06:52:00,34.0,29.1,29.52,West,274,4.0,7.0,82,0.00,,,0.02,Wunderground v.1.12,2013-02-12 11:52:00,
2013-02-12 06:58:00,34.1,29.2,29.52,West,267,5.0,6.0,82,0.00,,,0.02,Wunderground v.1.12,2013-02-12 11:58:00,
2013-02-12 07:04:00,34.0,28.8,29.52,West,265,5.0,6.0,81,0.00,,,0.02,Wunderground v.1.12,2013-02-12 12:04:00,
2013-02-12 07:07:00,34.1,29.2,29.52,West,270,5.0,16.0,82,0.00,,,0.02,Wunderground v.1.12,2013-02-12 12:07:00,
2013-02-12 07:10:00,34.3,28.8,29.52,West,265,4.0,5.0,80,0.00,,,0.02,Wunderground v.1.12,2013-02-12 12:10:00,
2013-02-12 07:15:00,34.4,28.9,29.53,West,265,4.0,7.0,80,0.00,,,0.02,Wunderground v.1.12,2013-02-12 12:15:00,
2013-02-12 07:21:00,34.6,29.1,29.53,West,261,5.0,6.0,80,0.00,,,0.02,Wunderground v.1.12,2013-02-12 12:21:00,
2013-02-12 07:26:00,34.6,29.1,29.53,WSW,254,6.0,9.0,80,0.00,,,0.02,Wunderground v.1.12,2013-02-12 12:26:00,
2013-02-12 07:32:00,34.7,28.9,29.52,WSW,258,6.0,6.0,79,0.00,,,0.02,Wunderground v.1.12,2013-02-12 12:32:00,
2013-02-12 07:38:00,34.9,29.0,29.52,WSW,250,6.0,10.0,79,0.00,,,0.02,Wunderground v.1.12,2013-02-12 12:38:00,
2013-02-12 07:43:00,35.0,28.8,29.52,West,279,7.0,10.0,78,0.00,,,0.02,Wunderground v.1.12,2013-02-12 12:43:00,
2013-02-12 07:49:00,35.3,28.8,29.53,SW,226,7.0,10.0,77,0.00,,,0.02,Wunderground v.1.12,2013-02-12 12:49:00,
2013-02-12 07:55:00,35.6,28.8,29.53,WSW,257,7.0,12.0,76,0.00,,,0.02,Wunderground v.1.12,2013-02-12 12:55:00,
2013-02-12 08:01:00,36.0,28.8,29.54,West,265,8.0,8.0,75,0.00,,,0.02,Wunderground v.1.12,2013-02-12 13:01:00,
2013-02-12 08:05:00,35.9,29.1,29.54,West,270,7.0,17.0,76,0.00,,,0.02,Wunderground v.1.12,2013-02-12 13:05:00,
2013-02-12 08:07:00,36.5,29.0,29.54,West,263,9.0,12.0,74,0.00,,,0.02,Wunderground v.1.12,2013-02-12 13:07:00,
2013-02-12 08:12:00,36.8,29.0,29.54,West,265,10.0,11.0,73,0.00,,,0.02,Wunderground v.1.12,2013-02-12 13:12:00,
2013-02-12 08:17:00,37.0,28.8,29.54,West,265,11.0,12.0,72,0.00,,,0.02,Wunderground v.1.12,2013-02-12 13:17:00,
2013-02-12 08:23:00,37.3,28.8,29.54,SW,234,11.0,12.0,71,0.00,,,0.02,Wunderground v.1.12,2013-02-12 13:23:00,
2013-02-12 08:28:00,37.6,28.7,29.54,WSW,255,11.0,13.0,70,0.00,,,0.02,Wunderground v.1.12,2013-02-12 13:28:00,
2013-02-12 08:34:00,37.9,29.0,29.54,WSW,242,11.0,12.0,70,0.00,,,0.02,Wunderground v.1.12,2013-02-12 13:34:00,
2013-02-12 08:36:00,37.8,28.9,29.54,West,270,11.0,19.0,70,0.00,,,0.02,Wunderground v.1.12,2013-02-12 13:36:00,
2013-02-12 08:39:00,38.0,28.7,29.54,West,265,10.0,13.0,69,0.00,,,0.02,Wunderground v.1.12,2013-02-12 13:39:00,
2013-02-12 08:47:00,38.3,28.3,29.54,West,276,10.0,10.0,67,0.00,,,0.02,Wunderground v.1.12,2013-02-12 13:47:00,
2013-02-12 08:52:00,38.5,28.5,29.54,SW,228,9.0,9.0,67,0.00,,,0.02,Wunderground v.1.12,2013-02-12 13:52:00,
2013-02-12 08:57:00,38.8,28.8,29.54,West,272,8.0,15.0,67,0.00,,,0.02,Wunderground v.1.12,2013-02-12 13:57:00,
2013-02-12 09:04:00,38.9,28.5,29.54,SSW,207,9.0,16.0,66,0.00,,,0.02,Wunderground v.1.12,2013-02-12 14:04:00,
2013-02-12 09:07:00,38.9,28.5,29.54,West,270,9.0,19.0,66,0.00,,,0.02,Wunderground v.1.12,2013-02-12 14:07:00,
2013-02-12 09:09:00,39.2,28.4,29.54,WSW,257,9.0,16.0,65,0.00,,,0.02,Wunderground v.1.12,2013-02-12 14:09:00,
2013-02-12 09:15:00,39.5,28.7,29.54,WSW,241,8.0,8.0,65,0.00,,,0.02,Wunderground v.1.12,2013-02-12 14:15:00,
2013-02-12 09:20:00,39.6,28.0,29.54,West,261,7.0,9.0,63,0.00,,,0.02,Wunderground v.1.12,2013-02-12 14:20:00,
2013-02-12 09:25:00,39.8,27.8,29.54,WSW,257,9.0,9.0,62,0.00,,,0.02,Wunderground v.1.12,2013-02-12 14:25:00,
2013-02-12 09:30:00,40.1,27.7,29.54,West,273,10.0,15.0,61,0.00,,,0.02,Wunderground v.1.12,2013-02-12 14:30:00,
2013-02-12 09:35:00,40.3,27.9,29.54,West,266,8.0,8.0,61,0.00,,,0.02,Wunderground v.1.12,2013-02-12 14:35:00,
2013-02-12 09:38:00,40.1,27.7,29.53,WSW,248,8.0,20.0,61,0.00,,,0.02,Wunderground v.1.12,2013-02-12 14:38:00,
2013-02-12 09:41:00,40.5,28.1,29.54,SW,217,8.0,9.0,61,0.00,,,0.02,Wunderground v.1.12,2013-02-12 14:41:00,
2013-02-12 09:47:00,40.6,27.8,29.54,West,263,9.0,11.0,60,0.00,,,0.02,Wunderground v.1.12,2013-02-12 14:47:00,
2013-02-12 09:52:00,40.8,28.0,29.54,WSW,246,10.0,10.0,60,0.00,,,0.02,Wunderground v.1.12,2013-02-12 14:52:00,
2013-02-12 09:58:00,41.2,27.9,29.54,WNW,302,8.0,10.0,59,0.00,,,0.02,Wunderground v.1.12,2013-02-12 14:58:00,
2013-02-12 10:04:00,41.2,27.5,29.54,West,265,9.0,15.0,58,0.00,,,0.02,Wunderground v.1.12,2013-02-12 15:04:00,
2013-02-12 10:06:00,41.2,27.5,29.54,West,270,8.0,21.0,58,0.00,,,0.03,Wunderground v.1.12,2013-02-12 15:06:00,
2013-02-12 10:09:00,41.2,27.1,29.54,West,264,11.0,20.0,57,0.00,,,0.02,Wunderground v.1.12,2013-02-12 15:09:00,
2013-02-12 10:14:00,41.5,27.4,29.54,SW,227,11.0,14.0,57,0.00,,,0.02,Wunderground v.1.12,2013-02-12 15:14:00,
2013-02-12 10:19:00,41.8,28.1,29.54,West,267,9.0,13.0,58,0.00,,,0.03,Wunderground v.1.12,2013-02-12 15:19:00,
2013-02-12 10:24:00,41.9,27.8,29.54,West,265,9.0,9.0,57,0.00,,,0.03,Wunderground v.1.12,2013-02-12 15:24:00,
2013-02-12 10:30:00,42.2,27.2,29.54,West,273,10.0,12.0,55,0.00,,,0.03,Wunderground v.1.12,2013-02-12 15:30:00,
2013-02-12 10:35:00,42.1,27.1,29.54,WSW,258,13.0,14.0,55,0.00,,,0.03,Wunderground v.1.12,2013-02-12 15:35:00,
2013-02-12 10:36:00,42.2,27.2,29.54,West,270,10.0,24.0,55,0.01,,,0.03,Wunderground v.1.12,2013-02-12 15:36:00,
2013-02-12 10:40:00,42.5,27.5,29.54,West,271,14.0,21.0,55,0.00,,,0.03,Wunderground v.1.12,2013-02-12 15:40:00,
2013-02-12 10:45:00,42.3,26.8,29.54,West,270,12.0,12.0,54,0.00,,,0.03,Wunderground v.1.12,2013-02-12 15:45:00,
2013-02-12 10:51:00,42.5,27.5,29.54,WSW,238,11.0,12.0,55,0.00,,,0.03,Wunderground v.1.12,2013-02-12 15:51:00,
2013-02-12 10:57:00,42.3,27.3,29.54,West,261,11.0,13.0,55,0.00,,,0.03,Wunderground v.1.12,2013-02-12 15:57:00,
2013-02-12 11:02:00,42.3,27.3,29.54,WNW,292,9.0,11.0,55,0.00,,,0.03,Wunderground v.1.12,2013-02-12 16:02:00,
2013-02-12 11:06:00,42.3,27.3,29.54,West,270,12.0,25.0,55,0.01,,,0.03,Wunderground v.1.12,2013-02-12 16:06:00,
2013-02-12 11:08:00,42.3,27.3,29.54,West,278,11.0,11.0,55,0.00,,,0.03,Wunderground v.1.12,2013-02-12 16:08:00,
2013-02-12 11:13:00,42.5,27.5,29.54,West,279,8.0,10.0,55,0.00,,,0.03,Wunderground v.1.12,2013-02-12 16:13:00,
2013-02-12 11:19:00,42.6,27.1,29.54,SW,231,7.0,13.0,54,0.00,,,0.03,Wunderground v.1.12,2013-02-12 16:19:00,
2013-02-12 11:24:00,42.8,28.6,29.54,WNW,293,8.0,13.0,57,0.00,,,0.03,Wunderground v.1.12,2013-02-12 16:24:00,
2013-02-12 11:30:00,42.8,26.8,29.55,West,267,10.0,10.0,53,0.00,,,0.03,Wunderground v.1.12,2013-02-12 16:30:00,
2013-02-12 11:36:00,43.1,27.1,29.55,WNW,292,12.0,13.0,53,0.00,,,0.04,Wunderground v.1.12,2013-02-12 16:36:00,
2013-02-12 11:42:00,43.8,27.3,29.55,WNW,288,9.0,10.0,52,0.00,,,0.04,Wunderground v.1.12,2013-02-12 16:42:00,
2013-02-12 11:47:00,43.9,26.9,29.54,West,264,8.0,14.0,51,0.00,,,0.04,Wunderground v.1.12,2013-02-12 16:47:00,
2013-02-12 11:52:00,43.5,26.1,29.54,West,277,12.0,19.0,50,0.00,,,0.04,Wunderground v.1.12,2013-02-12 16:52:00,
2013-02-12 11:58:00,43.3,25.9,29.54,West,272,13.0,15.0,50,0.00,,,0.04,Wunderground v.1.12,2013-02-12 16:58:00,
2013-02-12 12:04:00,43.2,26.3,29.54,West,274,12.0,14.0,51,0.00,,,0.04,Wunderground v.1.12,2013-02-12 17:04:00,
2013-02-12 12:06:00,43.2,25.8,29.54,West,270,11.0,28.0,50,0.01,,,0.04,Wunderground v.1.12,2013-02-12 17:06:00,
2013-02-12 12:09:00,43.3,25.9,29.54,WNW,301,11.0,14.0,50,0.00,,,0.04,Wunderground v.1.12,2013-02-12 17:09:00,
2013-02-12 12:14:00,43.2,26.3,29.54,West,265,12.0,12.0,51,0.00,,,0.04,Wunderground v.1.12,2013-02-12 17:14:00,
2013-02-12 12:21:00,43.2,25.8,29.54,West,280,13.0,13.0,50,0.00,,,0.04,Wunderground v.1.12,2013-02-12 17:21:00,
2013-02-12 12:26:00,43.5,26.1,29.54,WNW,282,13.0,15.0,50,0.00,,,0.04,Wunderground v.1.12,2013-02-12 17:26:00,
2013-02-12 12:31:00,44.1,26.6,29.54,West,277,12.0,20.0,50,0.00,,,0.04,Wunderground v.1.12,2013-02-12 17:31:00,
2013-02-12 12:37:00,44.1,26.1,29.54,WSW,255,11.0,13.0,49,0.00,,,0.04,Wunderground v.1.12,2013-02-12 17:37:00,
2013-02-12 12:43:00,44.2,26.2,29.54,West,273,9.0,12.0,49,0.00,,,0.04,Wunderground v.1.12,2013-02-12 17:43:00,
2013-02-12 12:48:00,44.2,26.2,29.54,West,269,10.0,16.0,49,0.00,,,0.04,Wunderground v.1.12,2013-02-12 17:48:00,
2013-02-12 12:54:00,44.2,25.7,29.54,West,277,12.0,13.0,48,0.00,,,0.04,Wunderground v.1.12,2013-02-12 17:54:00,
2013-02-12 12:59:00,44.3,25.8,29.55,WNW,288,12.0,13.0,48,0.00,,,0.04,Wunderground v.1.12,2013-02-12 17:59:00,
2013-02-12 13:04:00,44.1,26.6,29.55,WNW,290,11.0,20.0,50,0.00,,,0.04,Wunderground v.1.12,2013-02-12 18:04:00,
2013-02-12 13:07:00,44.3,25.8,29.55,West,270,11.0,24.0,48,0.00,,,0.04,Wunderground v.1.12,2013-02-12 18:07:00,
2013-02-12 13:09:00,43.8,26.3,29.55,WNW,289,10.0,10.0,50,0.00,,,0.04,Wunderground v.1.12,2013-02-12 18:09:00,
2013-02-12 13:15:00,43.6,26.2,29.55,West,281,11.0,17.0,50,0.00,,,0.04,Wunderground v.1.12,2013-02-12 18:15:00,
2013-02-12 13:21:00,43.3,26.4,29.55,WNW,287,12.0,12.0,51,0.00,,,0.04,Wunderground v.1.12,2013-02-12 18:21:00,
2013-02-12 13:26:00,43.1,26.2,29.55,West,276,10.0,16.0,51,0.00,,,0.04,Wunderground v.1.12,2013-02-12 18:26:00,
2013-02-12 13:32:00,43.1,26.7,29.55,WNW,284,10.0,15.0,52,0.00,,,0.04,Wunderground v.1.12,2013-02-12 18:32:00,
2013-02-12 13:35:00,43.2,26.3,29.55,West,270,11.0,24.0,51,0.00,,,0.04,Wunderground v.1.12,2013-02-12 18:35:00,
2013-02-12 13:38:00,43.2,26.7,29.55,West,269,9.0,11.0,52,0.00,,,0.04,Wunderground v.1.12,2013-02-12 18:38:00,
2013-02-12 13:43:00,43.3,26.8,29.55,WSW,250,7.0,10.0,52,0.00,,,0.04,Wunderground v.1.12,2013-02-12 18:43:00,
2013-02-12 13:49:00,43.3,26.8,29.55,West,263,6.0,13.0,52,0.00,,,0.04,Wunderground v.1.12,2013-02-12 18:49:00,
2013-02-12 13:54:00,43.3,26.8,29.55,West,265,8.0,12.0,52,0.00,,,0.04,Wunderground v.1.12,2013-02-12 18:54:00,
2013-02-12 13:59:00,43.3,27.3,29.56,West,259,7.0,9.0,53,0.00,,,0.04,Wunderground v.1.12,2013-02-12 18:59:00,
2013-02-12 14:04:00,43.3,27.3,29.56,West,270,6.0,7.0,53,0.00,,,0.04,Wunderground v.1.12,2013-02-12 19:04:00,
2013-02-12 14:06:00,43.3,26.8,29.56,West,270,7.0,18.0,52,0.00,,,0.04,Wunderground v.1.12,2013-02-12 19:06:00,
2013-02-12 14:10:00,43.3,26.8,29.56,WSW,252,7.0,10.0,52,0.00,,,0.04,Wunderground v.1.12,2013-02-12 19:10:00,
2013-02-12 14:15:00,43.3,26.8,29.56,SW,229,8.0,14.0,52,0.00,,,0.04,Wunderground v.1.12,2013-02-12 19:15:00,
2013-02-12 14:21:00,43.6,26.6,29.56,West,271,9.0,9.0,51,0.00,,,0.04,Wunderground v.1.12,2013-02-12 19:21:00,
2013-02-12 14:27:00,43.5,26.6,29.56,WNW,284,10.0,17.0,51,0.00,,,0.04,Wunderground v.1.12,2013-02-12 19:27:00,
2013-02-12 14:33:00,43.5,26.6,29.57,WNW,297,12.0,13.0,51,0.00,,,0.04,Wunderground v.1.12,2013-02-12 19:33:00,
2013-02-12 14:35:00,43.6,26.2,29.57,West,270,9.0,23.0,50,0.00,,,0.04,Wunderground v.1.12,2013-02-12 19:35:00,
2013-02-12 14:39:00,43.5,26.6,29.57,West,260,11.0,13.0,51,0.00,,,0.04,Wunderground v.1.12,2013-02-12 19:39:00,
2013-02-12 14:44:00,43.3,26.8,29.57,West,278,10.0,10.0,52,0.00,,,0.04,Wunderground v.1.12,2013-02-12 19:44:00,
2013-02-12 14:49:00,43.2,26.7,29.57,West,273,7.0,7.0,52,0.00,,,0.04,Wunderground v.1.12,2013-02-12 19:49:00,
2013-02-12 14:55:00,43.1,27.1,29.57,WNW,294,6.0,10.0,53,0.00,,,0.04,Wunderground v.1.12,2013-02-12 19:55:00,
2013-02-12 15:01:00,43.2,26.7,29.58,WSW,255,9.0,10.0,52,0.00,,,0.04,Wunderground v.1.12,2013-02-12 20:01:00,
2013-02-12 15:06:00,43.1,26.7,29.58,WNW,290,8.0,10.0,52,0.00,,,0.04,Wunderground v.1.12,2013-02-12 20:06:00,
2013-02-12 15:08:00,43.2,26.7,29.58,West,270,9.0,22.0,52,0.00,,,0.04,Wunderground v.1.12,2013-02-12 20:08:00,
2013-02-12 15:12:00,42.9,26.5,29.58,West,281,8.0,13.0,52,0.00,,,0.04,Wunderground v.1.12,2013-02-12 20:12:00,
2013-02-12 15:18:00,42.8,27.3,29.58,WNW,283,6.0,7.0,54,0.00,,,0.04,Wunderground v.1.12,2013-02-12 20:18:00,
2013-02-12 15:24:00,42.8,26.8,29.58,West,274,5.0,11.0,53,0.00,,,0.04,Wunderground v.1.12,2013-02-12 20:24:00,
2013-02-12 15:30:00,42.5,27.0,29.59,West,275,7.0,7.0,54,0.00,,,0.04,Wunderground v.1.12,2013-02-12 20:30:00,
2013-02-12 15:36:00,42.3,27.3,29.59,West,271,6.0,7.0,55,0.00,,,0.04,Wunderground v.1.12,2013-02-12 20:36:00,
2013-02-12 15:41:00,42.1,27.5,29.59,WSW,250,7.0,9.0,56,0.00,,,0.04,Wunderground v.1.12,2013-02-12 20:41:00,
2013-02-12 15:46:00,41.8,27.7,29.60,West,281,7.0,9.0,57,0.00,,,0.04,Wunderground v.1.12,2013-02-12 20:46:00,
2013-02-12 15:52:00,41.8,27.7,29.60,WNW,283,7.0,9.0,57,0.00,,,0.04,Wunderground v.1.12,2013-02-12 20:52:00,
2013-02-12 15:58:00,41.5,27.8,29.60,West,271,7.0,8.0,58,0.00,,,0.04,Wunderground v.1.12,2013-02-12 20:58:00,
2013-02-12 16:07:00,41.5,27.4,29.60,West,281,8.0,8.0,57,0.00,,,0.04,Wunderground v.1.12,2013-02-12 21:07:00,
2013-02-12 16:08:00,41.5,27.4,29.60,West,270,7.0,15.0,57,0.00,,,0.04,Wunderground v.1.12,2013-02-12 21:08:00,
2013-02-12 16:12:00,41.3,27.6,29.60,West,267,9.0,9.0,58,0.00,,,0.04,Wunderground v.1.12,2013-02-12 21:12:00,
2013-02-12 16:18:00,41.2,27.5,29.60,WSW,251,9.0,9.0,58,0.00,,,0.04,Wunderground v.1.12,2013-02-12 21:18:00,
2013-02-12 16:23:00,41.1,27.9,29.60,WSW,242,8.0,11.0,59,0.00,,,0.04,Wunderground v.1.12,2013-02-12 21:23:00,
2013-02-12 16:29:00,40.9,27.7,29.60,WSW,246,7.0,9.0,59,0.00,,,0.04,Wunderground v.1.12,2013-02-12 21:29:00,
2013-02-12 16:35:00,40.8,28.0,29.60,West,277,7.0,8.0,60,0.00,,,0.04,Wunderground v.1.12,2013-02-12 21:35:00,
2013-02-12 16:41:00,40.8,28.0,29.60,West,265,6.0,9.0,60,0.00,,,0.04,Wunderground v.1.12,2013-02-12 21:41:00,
2013-02-12 16:47:00,40.6,27.8,29.60,West,264,6.0,6.0,60,0.00,,,0.04,Wunderground v.1.12,2013-02-12 21:47:00,
2013-02-12 16:52:00,40.6,27.8,29.60,West,265,5.0,5.0,60,0.00,,,0.04,Wunderground v.1.12,2013-02-12 21:52:00,
2013-02-12 16:58:00,40.3,27.9,29.60,West,272,4.0,4.0,61,0.00,,,0.04,Wunderground v.1.12,2013-02-12 21:58:00,
2013-02-12 17:04:00,40.3,27.9,29.61,WSW,250,4.0,4.0,61,0.00,,,0.04,Wunderground v.1.12,2013-02-12 22:04:00,
2013-02-12 17:08:00,40.3,27.9,29.61,West,270,5.0,13.0,61,0.00,,,0.04,Wunderground v.1.12,2013-02-12 22:08:00,
2013-02-12 17:09:00,40.2,28.2,29.61,West,281,5.0,11.0,62,0.00,,,0.04,Wunderground v.1.12,2013-02-12 22:09:00,
2013-02-12 17:15:00,40.3,27.9,29.61,West,259,8.0,8.0,61,0.00,,,0.04,Wunderground v.1.12,2013-02-12 22:15:00,
2013-02-12 17:21:00,40.2,28.2,29.61,West,269,7.0,9.0,62,0.00,,,0.04,Wunderground v.1.12,2013-02-12 22:21:00,
2013-02-12 17:27:00,40.2,28.2,29.61,West,279,6.0,7.0,62,0.00,,,0.04,Wunderground v.1.12,2013-02-12 22:27:00,
2013-02-12 17:33:00,40.2,28.2,29.61,WSW,254,7.0,11.0,62,0.00,,,0.04,Wunderground v.1.12,2013-02-12 22:33:00,
2013-02-12 17:36:00,40.2,28.2,29.61,West,270,6.0,12.0,62,0.00,,,0.04,Wunderground v.1.12,2013-02-12 22:36:00,
2013-02-12 17:38:00,40.1,28.1,29.61,West,267,6.0,7.0,62,0.00,,,0.04,Wunderground v.1.12,2013-02-12 22:38:00,
2013-02-12 17:44:00,39.9,27.9,29.61,West,267,5.0,6.0,62,0.00,,,0.04,Wunderground v.1.12,2013-02-12 22:44:00,
2013-02-12 17:49:00,39.8,28.2,29.62,WSW,253,4.0,5.0,63,0.00,,,0.04,Wunderground v.1.12,2013-02-12 22:49:00,
2013-02-12 17:55:00,39.8,28.2,29.62,WNW,284,4.0,4.0,63,0.00,,,0.04,Wunderground v.1.12,2013-02-12 22:55:00,
2013-02-12 18:01:00,39.5,28.3,29.63,West,277,4.0,5.0,64,0.00,,,0.04,Wunderground v.1.12,2013-02-12 23:01:00,
2013-02-12 18:06:00,39.2,28.0,29.63,West,277,3.0,4.0,64,0.00,,,0.04,Wunderground v.1.12,2013-02-12 23:06:00,
2013-02-12 18:12:00,38.8,28.0,29.63,West,277,3.0,6.0,65,0.00,,,0.04,Wunderground v.1.12,2013-02-12 23:12:00,
2013-02-12 18:18:00,38.6,27.8,29.63,West,277,3.0,4.0,65,0.00,,,0.04,Wunderground v.1.12,2013-02-12 23:18:00,
2013-02-12 18:23:00,38.5,28.1,29.63,West,277,3.0,6.0,66,0.00,,,0.04,Wunderground v.1.12,2013-02-12 23:23:00,
2013-02-12 18:28:00,38.5,28.1,29.63,West,277,4.0,4.0,66,0.00,,,0.04,Wunderground v.1.12,2013-02-12 23:28:00,
2013-02-12 18:33:00,38.5,28.1,29.63,West,277,3.0,4.0,66,0.00,,,0.04,Wunderground v.1.12,2013-02-12 23:33:00,
2013-02-12 18:35:00,38.5,28.1,29.63,West,270,3.0,9.0,66,0.00,,,0.04,Wunderground v.1.12,2013-02-12 23:35:00,
2013-02-12 18:40:00,38.3,27.9,29.63,West,277,1.0,1.0,66,0.00,,,0.04,Wunderground v.1.12,2013-02-12 23:40:00,
2013-02-12 18:46:00,38.2,27.8,29.63,West,277,1.0,1.0,66,0.00,,,0.04,Wunderground v.1.12,2013-02-12 23:46:00,
2013-02-12 18:51:00,37.9,27.9,29.63,West,277,2.0,3.0,67,0.00,,,0.04,Wunderground v.1.12,2013-02-12 23:51:00,
2013-02-12 18:56:00,37.8,27.8,29.63,West,277,2.0,2.0,67,0.00,,,0.04,Wunderground v.1.12,2013-02-12 23:56:00,
2013-02-12 19:02:00,37.6,27.6,29.64,West,277,2.0,4.0,67,0.00,,,0.04,Wunderground v.1.12,2013-02-13 00:02:00,
2013-02-12 19:06:00,37.6,27.6,29.64,West,270,2.0,4.0,67,0.00,,,0.04,Wunderground v.1.12,2013-02-13 00:06:00,
2013-02-12 19:08:00,37.3,27.7,29.64,West,277,3.0,4.0,68,0.00,,,0.04,Wunderground v.1.12,2013-02-13 00:08:00,
2013-02-12 19:14:00,37.3,27.7,29.64,West,277,3.0,3.0,68,0.00,,,0.04,Wunderground v.1.12,2013-02-13 00:14:00,
2013-02-12 19:19:00,37.3,28.1,29.66,West,277,3.0,4.0,69,0.00,,,0.04,Wunderground v.1.12,2013-02-13 00:19:00,
2013-02-12 19:25:00,37.5,27.9,29.66,West,277,3.0,4.0,68,0.00,,,0.04,Wunderground v.1.12,2013-02-13 00:25:00,
2013-02-12 19:30:00,37.5,27.9,29.66,West,277,3.0,5.0,68,0.00,,,0.04,Wunderground v.1.12,2013-02-13 00:30:00,
2013-02-12 19:36:00,37.5,27.9,29.66,West,275,3.0,3.0,68,0.00,,,0.04,Wunderground v.1.12,2013-02-13 00:36:00,
2013-02-12 19:41:00,37.6,27.6,29.66,West,275,4.0,4.0,67,0.00,,,0.04,Wunderground v.1.12,2013-02-13 00:41:00,
2013-02-12 19:47:00,37.8,27.8,29.66,West,273,4.0,5.0,67,0.00,,,0.04,Wunderground v.1.12,2013-02-13 00:47:00,
2013-02-12 19:53:00,37.6,27.6,29.66,West,272,4.0,4.0,67,0.00,,,0.04,Wunderground v.1.12,2013-02-13 00:53:00,
2013-02-12 19:59:00,37.6,27.6,29.66,West,271,3.0,5.0,67,0.00,,,0.04,Wunderground v.1.12,2013-02-13 00:59:00,
2013-02-12 20:04:00,37.8,27.8,29.68,West,272,4.0,6.0,67,0.00,,,0.04,Wunderground v.1.12,2013-02-13 01:04:00,
2013-02-12 20:07:00,37.8,27.8,29.68,West,270,4.0,9.0,67,0.00,,,0.04,Wunderground v.1.12,2013-02-13 01:07:00,
2013-02-12 20:10:00,37.8,27.8,29.68,West,265,5.0,5.0,67,0.00,,,0.04,Wunderground v.1.12,2013-02-13 01:10:00,
2013-02-12 20:15:00,37.6,28.0,29.70,WSW,240,5.0,5.0,68,0.00,,,0.04,Wunderground v.1.12,2013-02-13 01:15:00,
2013-02-12 20:20:00,37.6,28.0,29.70,SW,234,3.0,3.0,68,0.00,,,0.04,Wunderground v.1.12,2013-02-13 01:20:00,
2013-02-12 20:26:00,37.6,28.3,29.70,WSW,246,3.0,7.0,69,0.00,,,0.04,Wunderground v.1.12,2013-02-13 01:26:00,
2013-02-12 20:31:00,37.6,28.3,29.72,WSW,244,4.0,7.0,69,0.00,,,0.04,Wunderground v.1.12,2013-02-13 01:31:00,
2013-02-12 20:37:00,37.8,28.5,29.72,SW,234,5.0,6.0,69,0.00,,,0.04,Wunderground v.1.12,2013-02-13 01:37:00,
2013-02-12 20:42:00,37.9,28.3,29.72,WSW,253,6.0,9.0,68,0.00,,,0.04,Wunderground v.1.12,2013-02-13 01:42:00,
2013-02-12 20:47:00,38.0,28.0,29.73,SW,234,6.0,10.0,67,0.00,,,0.04,Wunderground v.1.12,2013-02-13 01:47:00,
2013-02-12 20:53:00,38.2,28.2,29.73,West,267,6.0,10.0,67,0.00,,,0.04,Wunderground v.1.12,2013-02-13 01:53:00,
2013-02-12 20:59:00,38.3,27.9,29.73,WSW,252,7.0,11.0,66,0.00,,,0.04,Wunderground v.1.12,2013-02-13 01:59:00,
2013-02-12 21:04:00,38.3,27.9,29.73,West,263,7.0,7.0,66,0.00,,,0.04,Wunderground v.1.12,2013-02-13 02:04:00,
2013-02-12 21:08:00,38.3,27.9,29.74,WSW,248,6.0,15.0,66,0.00,,,0.04,Wunderground v.1.12,2013-02-13 02:08:00,
2013-02-12 21:09:00,38.3,27.6,29.73,WSW,248,6.0,6.0,65,0.00,,,0.04,Wunderground v.1.12,2013-02-13 02:09:00,
2013-02-12 21:15:00,38.3,27.6,29.73,WSW,256,6.0,6.0,65,0.00,,,0.04,Wunderground v.1.12,2013-02-13 02:15:00,
2013-02-12 21:20:00,38.2,27.5,29.73,West,263,5.0,5.0,65,0.00,,,0.04,Wunderground v.1.12,2013-02-13 02:20:00,
2013-02-12 21:26:00,38.0,27.6,29.73,WSW,251,5.0,6.0,66,0.00,,,0.04,Wunderground v.1.12,2013-02-13 02:26:00,
2013-02-12 21:32:00,37.9,27.5,29.73,West,267,5.0,11.0,66,0.00,,,0.04,Wunderground v.1.12,2013-02-13 02:32:00,
2013-02-12 21:36:00,37.9,27.5,29.73,WSW,248,5.0,13.0,66,0.00,,,0.04,Wunderground v.1.12,2013-02-13 02:36:00,
2013-02-12 21:38:00,37.9,27.2,29.73,West,275,7.0,12.0,65,0.00,,,0.04,Wunderground v.1.12,2013-02-13 02:38:00,
2013-02-12 21:43:00,37.8,27.5,29.73,WSW,256,6.0,9.0,66,0.00,,,0.04,Wunderground v.1.12,2013-02-13 02:43:00,
2013-02-12 21:49:00,37.8,27.1,29.72,West,261,6.0,10.0,65,0.00,,,0.04,Wunderground v.1.12,2013-02-13 02:49:00,
2013-02-12 21:54:00,37.5,26.8,29.72,West,269,6.0,6.0,65,0.00,,,0.04,Wunderground v.1.12,2013-02-13 02:54:00,
2013-02-12 21:59:00,37.3,27.0,29.72,West,270,5.0,7.0,66,0.00,,,0.04,Wunderground v.1.12,2013-02-13 02:59:00,
2013-02-12 22:04:00,37.2,26.9,29.71,West,263,4.0,6.0,66,0.00,,,0.04,Wunderground v.1.12,2013-02-13 03:04:00,
2013-02-12 22:06:00,37.3,27.0,29.71,West,270,6.0,16.0,66,0.00,,,0.04,Wunderground v.1.12,2013-02-13 03:06:00,
2013-02-12 22:09:00,37.2,26.5,29.71,West,270,5.0,6.0,65,0.00,,,0.04,Wunderground v.1.12,2013-02-13 03:09:00,
2013-02-12 22:15:00,37.3,26.6,29.69,West,281,6.0,6.0,65,0.00,,,0.04,Wunderground v.1.12,2013-02-13 03:15:00,
2013-02-12 22:21:00,37.2,26.5,29.69,West,266,5.0,6.0,65,0.00,,,0.04,Wunderground v.1.12,2013-02-13 03:21:00,
2013-02-12 22:26:00,37.2,26.5,29.69,WSW,250,4.0,9.0,65,0.00,,,0.04,Wunderground v.1.12,2013-02-13 03:26:00,
2013-02-12 22:32:00,36.9,26.6,29.70,WSW,255,3.0,4.0,66,0.00,,,0.04,Wunderground v.1.12,2013-02-13 03:32:00,
2013-02-12 22:37:00,36.8,26.5,29.70,WNW,285,4.0,6.0,66,0.00,,,0.04,Wunderground v.1.12,2013-02-13 03:37:00,
2013-02-12 22:43:00,36.3,26.4,29.70,West,274,3.0,5.0,67,0.00,,,0.04,Wunderground v.1.12,2013-02-13 03:43:00,
2013-02-12 22:48:00,36.2,26.3,29.70,West,279,4.0,6.0,67,0.00,,,0.04,Wunderground v.1.12,2013-02-13 03:48:00,
2013-02-12 22:53:00,36.0,26.1,29.70,West,271,5.0,7.0,67,0.00,,,0.04,Wunderground v.1.12,2013-02-13 03:53:00,
2013-02-12 23:00:00,36.0,26.1,29.70,West,277,5.0,8.0,67,0.00,,,0.04,Wunderground v.1.12,2013-02-13 04:00:00,
2013-02-12 23:06:00,36.0,26.5,29.70,West,259,6.0,6.0,68,0.00,,,0.04,Wunderground v.1.12,2013-02-13 04:06:00,
2013-02-12 23:11:00,36.0,26.5,29.70,West,268,5.0,9.0,68,0.00,,,0.04,Wunderground v.1.12,2013-02-13 04:11:00,
2013-02-12 23:16:00,36.2,26.3,29.69,West,274,6.0,11.0,67,0.00,,,0.04,Wunderground v.1.12,2013-02-13 04:16:00,
2013-02-12 23:22:00,36.2,26.3,29.69,West,259,7.0,9.0,67,0.00,,,0.04,Wunderground v.1.12,2013-02-13 04:22:00,
2013-02-12 23:27:00,36.2,26.3,29.69,WNW,284,6.0,7.0,67,0.00,,,0.04,Wunderground v.1.12,2013-02-13 04:27:00,
2013-02-12 23:33:00,36.2,26.3,29.68,West,275,5.0,10.0,67,0.00,,,0.04,Wunderground v.1.12,2013-02-13 04:33:00,
2013-02-12 23:36:00,36.2,26.3,29.68,West,270,6.0,13.0,67,0.00,,,0.04,Wunderground v.1.12,2013-02-13 04:36:00,
2013-02-12 23:38:00,36.2,26.3,29.68,West,275,5.0,9.0,67,0.00,,,0.04,Wunderground v.1.12,2013-02-13 04:38:00,
2013-02-12 23:44:00,36.2,26.3,29.68,West,276,6.0,6.0,67,0.00,,,0.04,Wunderground v.1.12,2013-02-13 04:44:00,
2013-02-12 23:49:00,36.0,26.1,29.69,WNW,284,6.0,6.0,67,0.00,,,0.04,Wunderground v.1.12,2013-02-13 04:49:00,
2013-02-12 23:55:00,35.9,26.4,29.69,West,262,5.0,7.0,68,0.00,,,0.04,Wunderground v.1.12,2013-02-13 04:55:00,